Weather History for Olathe New Century, KS

Change the Weather History Date:

Thursday, January 17, 2013

  Actual Average Record
Temperature  
Mean Temperature 36 °F -  
Max Temperature 46 °F 37 °F 48 °F (1998)
Min Temperature 27 °F 19 °F 3 °F (1997)
Degree Days  
Heating Degree Days 28    
Moisture  
Dew Point 26 °F    
Average Humidity 71    
Maximum Humidity 92    
Minimum Humidity 46    
Precipitation  
Precipitation 0.00 in - - ()
Sea Level Pressure  
Sea Level Pressure 30.42 in    
Wind  
Wind Speed 10 mph (NNW)    
Max Wind Speed 14 mph    
Max Gust Speed -    
Visibility 10 miles    
Events      
Averages and records for this station are not official NWS values.
T = Trace of Precipitation, MM = Missing Value Source: NWS Daily Summary

Daily Weather History Graph

Daily Weather History Graph

Search for Another Location

Airport:

Trip Planner

Search our weather history database for the weather conditions in past years. The results will help you decide how hot, cold, wet, or windy it might be!

Date:

Astronomy

Jan. 17, 2013 Rise Set
Actual Time 7:35 AM CST 5:24 PM CST
Civil Twilight 7:06 AM CST 5:53 PM CST
Nautical Twilight 6:33 AM CST 6:26 PM CST
Astronomical Twilight 6:02 AM CST 6:57 PM CST
Moon 10:47 AM CST (1/17) No Moon Set
Length of Visible Light 10h 46m
Length of Day
9h 48m
Waxing Crescent, 38% of the Moon is Illuminated
Jan 17
Waxing Crescent
Jan 18
First Quarter
Jan 26
Full
Feb 3
Last Quarter
Feb 10
New

Hourly Weather History & Observations

Time (CST) Temp. Windchill Dew Point Humidity Pressure Visibility Wind Dir Wind Speed Gust Speed Precip Events Conditions
12:53 AM 33.1 °F 24.4 °F 27.0 °F 78% 30.24 in 10.0 mi NNW 11.5 mph - N/A   Clear
1:53 AM 33.1 °F 23.9 °F 27.0 °F 78% 30.26 in 10.0 mi NNW 12.7 mph - N/A   Clear
3:53 AM 32.0 °F 22.5 °F 27.0 °F 82% 30.31 in 10.0 mi NNW 12.7 mph - N/A   Clear
4:53 AM 30.9 °F 20.7 °F 27.0 °F 85% 30.34 in 10.0 mi NNW 13.8 mph - N/A   Clear
5:53 AM 30.0 °F 20.0 °F 27.0 °F 88% 30.38 in 10.0 mi NNW 12.7 mph - N/A   Clear
6:53 AM 28.0 °F 18.1 °F 25.0 °F 88% 30.40 in 9.0 mi NNW 11.5 mph - N/A   Clear
7:53 AM 27.0 °F 17.3 °F 25.0 °F 92% 30.42 in 8.0 mi NNW 10.4 mph - N/A   Clear
8:53 AM 30.9 °F 20.7 °F 27.0 °F 85% 30.45 in 9.0 mi NNW 13.8 mph - N/A   Clear
9:53 AM 34.0 °F 24.6 °F 28.0 °F 79% 30.49 in 10.0 mi North 13.8 mph - N/A   Clear
10:53 AM 37.0 °F 28.9 °F 26.1 °F 65% 30.50 in 10.0 mi North 12.7 mph - N/A   Clear
11:53 AM 41.0 °F 36.4 °F 24.1 °F 51% 30.48 in 10.0 mi North 6.9 mph - N/A   Clear
12:53 PM 43.0 °F 38.8 °F 24.1 °F 47% 30.46 in 10.0 mi NNW 6.9 mph - N/A   Clear
1:53 PM 45.0 °F 41.8 °F 25.0 °F 46% 30.44 in 10.0 mi NNW 5.8 mph - N/A   Clear
2:53 PM 46.0 °F 43.9 °F 26.1 °F 46% 30.43 in 10.0 mi NNW 4.6 mph - N/A   Clear
3:53 PM 46.0 °F 44.8 °F 27.0 °F 47% 30.44 in 10.0 mi NNE 3.5 mph - N/A   Clear
4:53 PM 44.1 °F 41.5 °F 28.0 °F 53% 30.45 in 10.0 mi WSW 4.6 mph - N/A   Clear
5:53 PM 36.0 °F 33.3 °F 26.1 °F 67% 30.45 in 10.0 mi South 3.5 mph - N/A   Clear
6:53 PM 34.0 °F 28.8 °F 26.1 °F 73% 30.45 in 10.0 mi South 5.8 mph - N/A   Clear
7:53 PM 33.1 °F 30.0 °F 25.0 °F 72% 30.46 in 10.0 mi SE 3.5 mph - N/A   Clear
8:53 PM 30.9 °F 27.5 °F 24.1 °F 76% 30.46 in 10.0 mi SSE 3.5 mph - N/A   Clear
9:53 PM 30.0 °F 22.4 °F 24.1 °F 79% 30.45 in 10.0 mi SSE 8.1 mph - N/A   Clear
10:53 PM 30.0 °F 22.4 °F 24.1 °F 79% 30.44 in 10.0 mi South 8.1 mph - N/A   Clear
11:53 PM 30.9 °F 22.8 °F 25.0 °F 79% 30.43 in 10.0 mi South 9.2 mph - N/A   Clear